Starlink 33941

operational
NORAD ID: 63765 Int'l Des: 2025-089 Owner: SPXS Country: US Constellation: starlink
LEOCIRCULAR

About Starlink 33941

Description loading...

Live Position

Loading 3D Globe...

Upcoming Passes

Altitude History

Altitude vs Time

uPlot chart will show altitude changes over time

Two-Line Element Set

1 63765U 25089Q 25307.61070598 .00025576 00000-0 93484-3 0 9990
2 63765 43.0024 37.4137 0001197 276.8965 83.1750 15.27610343 29667
Epoch: Nov 3, 2025 • Age: 19 hours

Current Status

Altitude 486.6 km
Velocity 7.63 km/s
Sub-Earth Point 42.49°N, 80.95°W
Launch Date Apr 29, 2025
Age 0.5 years
Type internet

Technical Details

Classification Payload
Mass 575.00 kg
Dry Mass 530.00 kg
Total Mass 575.00 kg
Length 0.30 m
Diameter 4.10 m
Span 29.00 m
Shape Box + pan
Manufacturer SPXS
Bus Type Starlink V2MO
Phase Status In Orbit
Owner/State SPXS/US

Large Constellations

Loading constellations...